This is the latest recevied weather packets stored in our database for station/object KB4RFE. If no packets are shown the sender has not sent any weather packets the latest 10 day(s).
| Time | Temp. | Humidity | Pressure | Rain* | Wind** | Luminosity | Snow |
|---|---|---|---|---|---|---|---|
| 1777510120 | 21.67° C | 88% | 1012.5 hPa | 0 mm | - | 0 W/m² | - |
| 1777509817 | 21.67° C | 87% | 1012.6 hPa | 0 mm | - | 0 W/m² | - |
| 1777509512 | 21.67° C | 87% | 1012.3 hPa | 0 mm | - | 0 W/m² | - |
| 1777509210 | 21.67° C | 86% | 1012.1 hPa | 0 mm | - | 0 W/m² | - |
| 1777508907 | 21.67° C | 86% | 1012.4 hPa | 0 mm | - | 0 W/m² | - |
| 1777508604 | 22.22° C | 85% | 1012.3 hPa | 0 mm | - | 0 W/m² | - |
| 1777508301 | 22.22° C | 85% | 1012.4 hPa | 0 mm | - | 0 W/m² | - |
| 1777507998 | 22.22° C | 84% | 1012.3 hPa | 0 mm | - | 0 W/m² | - |
| 1777507695 | 22.22° C | 83% | 1012.6 hPa | 0 mm | - | 1 W/m² | - |
| 1777507392 | 22.22° C | 82% | 1012.3 hPa | 0 mm | - | 2 W/m² | - |
| 1777507089 | 22.78° C | 82% | 1012.3 hPa | 0 mm | - | 3 W/m² | - |
| 1777506787 | 22.78° C | 81% | 1012.2 hPa | 0 mm | - | 4 W/m² | - |
| 1777506483 | 22.78° C | 80% | 1012.3 hPa | 0 mm | - | 7 W/m² | - |
| 1777506179 | 22.78° C | 79% | 1012.2 hPa | 0 mm | - | 10 W/m² | - |
| 1777505875 | 22.78° C | 78% | 1012.3 hPa | 0 mm | - | 14 W/m² | - |
| 1777505571 | 23.33° C | 78% | 1012.3 hPa | 0 mm | - | 21 W/m² | - |
| 1777505268 | 23.33° C | 79% | 1012.6 hPa | 0 mm | - | 28 W/m² | - |
| 1777504965 | 23.33° C | 80% | 1012.4 hPa | 0 mm | - | 32 W/m² | - |
| 1777504661 | 23.33° C | 80% | 1012.4 hPa | 0 mm | - | 33 W/m² | - |
| 1777504359 | 23.33° C | 80% | 1012.2 hPa | 0 mm | - | 35 W/m² | - |
| 1777504052 | 23.33° C | 80% | 1012.4 hPa | 0 mm | - | 43 W/m² | - |
| 1777503750 | 23.33° C | 80% | 1012.3 hPa | 0 mm | - | 55 W/m² | - |
| 1777503446 | 23.33° C | 80% | 1012.1 hPa | 0 mm | - | 51 W/m² | - |
| 1777503142 | 23.33° C | 81% | 1012.2 hPa | 0 mm | - | 77 W/m² | - |
| 1777502840 | 23.33° C | 82% | 1012.2 hPa | 0 mm | - | 71 W/m² | - |
* Rain latest hour (hover to see other rain measurements)
** Current wind speed in m/s (hover to see current wind gust speed)